{"data":{"norad_id":53431,"intl_designator":"2022-097AV","name":"STARLINK-4548","alt_names":[],"object_type":"PAYLOAD","status":"ACTIVE","operator":null,"country":"US","launch_date":"2022-08-10","launch_site_code":"AFETR","launch_vehicle":null,"mission":null,"orbit_class":"UNKNOWN","rcs_meters":null,"size_class":null,"mass_kg":null,"dimensions":null,"purposes":["comms"],"wikipedia_slug":null,"has_3d_model":false,"image_url":null,"decayed_at":null,"tle_current":{"epoch":"2026-09-20T03:06:45.800928Z","epoch_age_seconds":107454,"freshness":"FRESH","line1":"1 53431U 22097AV  26263.12969677 -.00005875  00000+0 -15741-3 0  9999","line2":"2 53431  53.1613 295.4427 0001009  55.8361 304.2737 15.35443914228353","mean_motion":15.35443914,"eccentricity":0.0001009,"inclination_deg":53.1613,"raan_deg":295.4427,"arg_perigee_deg":55.8361,"mean_anomaly_deg":304.2737,"bstar":-0.00015741,"rev_number":22835,"period_min":93.78395308811,"perigee_km":458.91233794379,"apogee_km":460.29219372763,"semimajor_km":6837.7392658357,"source":"CELESTRAK","updated_at":"2026-09-20T09:00:40.231579Z"}}}